K5NAN Weather Reports


Display with metric or nautical units.
time (UTC)temp
F
wind
direction
speed
MPH
gust
MPH
rain 1hr
in
rain 24hr
in
rain mn
in
humidity
%
barometer
mb
20260509101043 68 355 0.0 2.0 0.00 0.00 0.00 96 1007.8
20260509100540 68 332 0.0 1.0 0.00 0.00 0.00 95 1007.8
20260509100038 68 350 2.0 2.0 0.00 0.00 0.00 96 1007.7
20260509095534 68 302 2.0 2.0 0.00 0.00 0.00 95 1007.8
20260509095032 68 337 2.0 2.0 0.00 0.00 0.00 95 1007.8
20260509094528 68 14 1.0 2.0 0.00 0.00 0.00 95 1007.6
20260509094025 68 41 4.0 4.0 0.00 0.00 0.00 95 1007.2
20260509093523 68 82 0.0 1.0 0.00 0.00 0.00 95 1007.1
20260509093021 68 32 2.0 4.0 0.00 0.00 0.00 95 1007.0
20260509092518 68 46 2.0 3.0 0.00 0.00 0.00 95 1006.9
20260509092017 68 24 1.0 3.0 0.00 0.00 0.00 95 1006.9
20260509091514 68 83 2.0 7.0 0.00 0.00 0.00 95 1006.6
20260509091010 68 82 3.0 6.0 0.00 0.00 0.00 95 1006.8
20260509090508 68 66 2.0 3.0 0.00 0.00 0.00 95 1006.8
20260509090006 68 75 1.0 3.0 0.00 0.00 0.00 95 1006.9
20260509085502 68 90 4.0 6.0 0.00 0.00 0.00 95 1007.2
20260509084958 68 64 3.0 4.0 0.00 0.00 0.00 95 1007.5
20260509084455 68 73 2.0 4.0 0.00 0.00 0.00 95 1007.5
20260509083952 68 117 3.0 6.0 0.00 0.00 0.00 95 1007.7
20260509083450 68 90 3.0 6.0 0.00 0.00 0.00 95 1007.7
20260509082946 68 72 1.0 3.0 0.00 0.00 0.00 95 1007.9
20260509082443 68 177 0.0 2.0 0.00 0.00 0.00 95 1007.9
20260509081941 68 163 1.0 3.0 0.00 0.00 0.00 95 1008.1
20260509081438 68 129 0.0 1.0 0.00 0.00 0.00 95 1008.2
20260509080935 68 162 0.0 1.0 0.00 0.00 0.00 95 1008.4
20260509080433 68 83 2.0 3.0 0.00 0.00 0.00 95 1008.6
20260509075931 68 112 2.0 3.0 0.00 0.00 0.00 95 1008.8
20260509075428 68 124 0.0 1.0 0.00 0.00 0.00 95 1008.9
20260509074926 68 103 1.0 2.0 0.00 0.00 0.00 95 1009.2
20260509074423 68 83 0.0 1.0 0.00 0.00 0.00 95 1009.5
20260509073919 68 39 0.0 2.0 0.00 0.00 0.00 95 1009.4
20260509073416 68 67 3.0 4.0 0.00 0.00 0.00 94 1009.5
20260509072912 68 16 2.0 3.0 0.00 0.00 0.00 94 1009.5
20260509072409 68 322 2.0 2.0 0.00 0.00 0.00 94 1009.7
20260509071905 68 85 0.0 1.0 0.00 0.00 0.00 94 1009.5
20260509071402 68 82 0.0 1.0 0.00 0.00 0.00 94 1009.4
20260509070900 68 34 1.0 2.0 0.00 0.00 0.00 94 1009.3
20260509070356 68 34 2.0 3.0 0.00 0.00 0.00 94 1009.4
20260509065852 68 52 2.0 2.0 0.00 0.00 0.00 94 1009.4
20260509065349 68 44 2.0 4.0 0.00 0.00 0.00 93 1009.4
20260509064844 68 25 2.0 3.0 0.00 0.00 0.00 93 1009.4
20260509064342 68 32 2.0 3.0 0.00 0.00 0.00 93 1009.3
20260509063840 68 60 1.0 2.0 0.00 0.00 0.00 93 1009.2
20260509063336 68 76 0.0 2.0 0.00 0.00 0.00 92 1008.9
20260509062833 68 119 0.0 0.0 0.00 0.00 0.00 92 1008.7
20260509062330 68 110 0.0 2.0 0.00 0.00 0.00 93 1008.8
20260509061827 68 161 1.0 3.0 0.00 0.00 0.00 93 1008.7
20260509061326 68 151 2.0 4.0 0.00 0.00 0.00 93 1008.8
20260509060822 68 161 4.0 4.0 0.00 0.00 0.00 93 1009.0
20260509060319 68 155 2.0 2.0 0.00 0.00 0.00 93 1009.1
20260509055814 68 169 3.0 3.0 0.00 0.00 0.00 93 1009.1
20260509055310 68 185 2.0 2.0 0.00 0.00 0.00 93 1009.4
20260509054807 68 142 2.0 3.0 0.00 0.00 0.00 93 1009.2
20260509054304 68 198 1.0 1.0 0.00 0.00 0.00 93 1009.2
20260509053802 68 202 0.0 0.0 0.00 0.00 0.00 93 1009.3
20260509053259 68 202 0.0 1.0 0.00 0.00 0.00 93 1009.4
20260509052757 68 212 1.0 2.0 0.00 0.00 0.00 93 1009.4
20260509052254 68 226 1.0 2.0 0.00 0.00 0.00 92 1009.5
20260509051752 68 207 1.0 3.0 0.00 0.00 0.00 92 1009.2
20260509051250 68 193 2.0 3.0 0.00 0.00 0.00 92 1008.9
20260509050746 68 22 0.0 0.0 0.00 0.00 0.00 92 1009.3
20260509050242 68 21 0.0 1.0 0.00 0.00 0.00 91 1009.4
20260509045740 68 36 0.0 1.0 0.00 0.12 0.12 91 1009.5
20260509045237 68 44 3.0 3.0 0.00 0.12 0.12 91 1009.5
20260509044734 68 36 2.0 3.0 0.00 0.12 0.12 91 1009.3
20260509044232 68 40 3.0 4.0 0.00 0.12 0.12 90 1009.2
20260509043728 68 52 3.0 7.0 0.00 0.12 0.12 90 1009.2
20260509043224 68 12 4.0 7.0 0.00 0.12 0.12 89 1008.6
20260509042720 68 146 2.0 3.0 0.00 0.12 0.12 89 1008.0
20260509042217 68 123 6.0 10.0 0.00 0.12 0.12 89 1007.8
20260509041714 68 156 7.0 10.0 0.00 0.12 0.12 89 1008.1
20260509041210 69 174 4.0 7.0 0.07 0.12 0.12 88 1008.4
20260509040709 69 164 6.0 8.0 0.07 0.12 0.12 88 1008.6
20260509040205 69 193 5.0 9.0 0.00 0.11 0.11 88 1008.6
20260509035702 69 151 6.0 8.0 0.00 0.11 0.11 89 1008.7
20260509035159 69 169 5.0 6.0 0.00 0.11 0.11 89 1009.1
20260509034656 69 327 0.0 0.0 0.00 0.11 0.11 88 1009.5
20260509034153 69 327 0.0 1.0 0.00 0.11 0.11 87 1009.5
20260509033650 69 326 1.0 2.0 0.12 0.11 0.11 87 1009.8
20260509033148 69 351 3.0 4.0 0.24 0.11 0.11 85 1009.3
20260509032645 70 337 2.0 3.0 0.12 0.09 0.09 83 1009.3
20260509032141 70 306 2.0 2.0 0.00 0.07 0.07 82 1009.2
20260509031639 70 182 0.0 0.0 0.00 0.07 0.07 82 1008.8
20260509031136 70 165 0.0 0.0 0.00 0.07 0.07 81 1008.6
20260509030635 70 53 0.0 0.0 0.00 0.07 0.07 81 1008.6
20260509030132 70 52 0.0 0.0 0.00 0.07 0.07 81 1008.8
20260509025627 70 58 0.0 0.0 0.00 0.07 0.07 81 1008.7
20260509025123 70 166 0.0 0.0 0.00 0.07 0.07 81 1008.7
20260509024619 70 167 0.0 0.0 0.00 0.07 0.07 80 1008.8
20260509024115 70 167 0.0 1.0 0.00 0.07 0.07 80 1008.6
20260509023613 70 167 0.0 0.0 0.00 0.07 0.07 80 1008.5
20260509023110 70 169 1.0 1.0 0.00 0.07 0.07 80 1008.3
20260509022606 70 163 1.0 1.0 0.00 0.07 0.07 80 1008.3
20260509022105 70 158 2.0 2.0 0.00 0.07 0.07 79 1008.2
20260509021601 70 157 2.0 3.0 0.00 0.07 0.07 79 1008.2
20260509021058 71 161 4.0 6.0 0.00 0.07 0.07 79 1008.1
20260509020556 71 154 4.0 4.0 0.00 0.07 0.07 78 1008.0
20260509020053 71 153 2.0 2.0 0.00 0.07 0.07 78 1008.0
20260509015552 71 163 0.0 1.0 0.00 0.07 0.07 78 1008.0
20260509015049 71 156 1.0 1.0 0.00 0.07 0.07 77 1007.8
20260509014545 71 169 0.0 1.0 0.00 0.07 0.07 77 1007.8
20260509014042 71 159 1.0 2.0 0.00 0.07 0.07 77 1007.7
20260509013539 71 160 2.0 4.0 0.00 0.07 0.07 77 1007.7
20260509013034 71 166 1.0 3.0 0.00 0.07 0.07 76 1007.7
20260509012531 71 169 1.0 1.0 0.00 0.07 0.07 76 1007.7
20260509012028 71 176 1.0 3.0 0.00 0.07 0.07 75 1007.6
20260509011526 72 155 1.0 3.0 0.00 0.07 0.07 75 1007.6
20260509011023 72 151 2.0 3.0 0.00 0.07 0.07 74 1007.5
20260509010521 72 175 3.0 4.0 0.00 0.07 0.07 74 1007.5
20260509010017 72 158 3.0 3.0 0.00 0.07 0.07 74 1007.5
20260509005515 72 152 3.0 4.0 0.00 0.07 0.07 73 1007.2
20260509005015 73 154 4.0 7.0 0.00 0.07 0.07 73 1007.0
20260509004512 73 157 7.0 9.0 0.00 0.07 0.07 72 1007.3
20260509004009 73 142 5.0 8.0 0.00 0.07 0.07 71 1006.9
20260509003508 73 162 4.0 7.0 0.00 0.07 0.07 71 1006.9
20260509003004 73 111 4.0 7.0 0.00 0.07 0.07 70 1007.1
20260508223948 78 175 6.0 8.0 0.00 0.07 0.07 64 1007.5
20260508223445 78 175 6.0 8.0 0.00 0.07 0.07 64 1007.5
20260508222942 78 182 6.0 8.0 0.00 0.07 0.07 64 1007.5
20260508222440 77 193 4.0 7.0 0.00 0.07 0.07 65 1007.3
20260508221936 77 158 5.0 7.0 0.00 0.07 0.07 64 1007.1
20260508221432 77 213 1.0 8.0 0.00 0.07 0.07 64 1007.3
20260508220929 77 174 2.0 6.0 0.00 0.07 0.07 65 1007.2
20260508220425 77 142 4.0 6.0 0.00 0.07 0.07 64 1006.8
20260508215921 76 142 5.0 7.0 0.00 0.07 0.07 65 1006.8
20260508215419 76 131 5.0 11.0 0.00 0.07 0.07 64 1006.9
20260508214915 77 169 7.0 9.0 0.00 0.07 0.07 65 1006.9
20260508214413 76 175 6.0 10.0 0.00 0.07 0.07 66 1007.2
20260508213909 76 164 9.0 10.0 0.00 0.07 0.07 65 1007.7
20260508213406 75 148 8.0 9.0 0.00 0.07 0.07 67 1008.0
20260508212902 74 157 5.0 7.0 0.00 0.07 0.07 68 1008.0
20260508212358 74 163 7.0 11.0 0.00 0.07 0.07 67 1008.3
20260508211854 74 183 7.0 11.0 0.00 0.07 0.07 67 1008.2
20260508211350 75 172 5.0 8.0 0.00 0.07 0.07 67 1008.5
20260508210848 75 174 5.0 10.0 0.00 0.07 0.07 66 1008.5
20260508210344 75 152 7.0 9.0 0.00 0.07 0.07 66 1008.7
20260508205841 75 158 5.0 9.0 0.00 0.07 0.07 67 1008.8
20260508205337 75 201 8.0 9.0 0.00 0.07 0.07 65 1008.7
20260508204833 75 161 4.0 8.0 0.00 0.07 0.07 65 1008.8
20260508204331 75 162 6.0 8.0 0.00 0.07 0.07 65 1009.1
20260508203827 75 172 4.0 7.0 0.00 0.07 0.07 65 1008.8
20260508203323 76 158 5.0 8.0 0.00 0.07 0.07 62 1009.0
20260508202818 76 175 6.0 10.0 0.00 0.07 0.07 62 1009.0
20260508202316 77 184 4.0 8.0 0.00 0.07 0.07 62 1009.0
20260508201814 78 183 7.0 9.0 0.00 0.07 0.07 61 1009.1
20260508201310 78 167 6.0 9.0 0.00 0.07 0.07 60 1008.8
20260508200807 78 201 6.0 8.0 0.00 0.07 0.07 62 1009.0
20260508200303 78 158 1.0 8.0 0.00 0.07 0.07 62 1009.1
20260508195759 78 139 2.0 3.0 0.00 0.07 0.07 63 1009.1
20260508195256 77 161 5.0 9.0 0.00 0.07 0.07 62 1009.3
20260508194752 77 127 4.0 7.0 0.00 0.07 0.07 61 1009.2
20260508194249 76 171 2.0 2.0 0.00 0.07 0.07 64 1009.5
20260508193747 76 204 2.0 2.0 0.00 0.07 0.07 63 1009.5
20260508193243 75 198 2.0 4.0 0.00 0.07 0.07 64 1009.5
20260508192739 76 184 5.0 8.0 0.00 0.07 0.07 62 1009.6
20260508192237 76 142 3.0 7.0 0.00 0.07 0.07 61 1009.7
20260508191734 75 155 5.0 8.0 0.00 0.07 0.07 63 1009.7
20260508191231 76 144 4.0 6.0 0.00 0.07 0.07 62 1009.6
20260508190728 76 196 7.0 8.0 0.00 0.07 0.07 64 1009.8
20260508190224 76 172 6.0 8.0 0.00 0.07 0.07 62 1009.8
20260508185721 76 155 4.0 6.0 0.00 0.07 0.07 62 1009.7
20260508185218 77 159 4.0 6.0 0.00 0.07 0.07 61 1009.7
20260508184715 77 187 5.0 9.0 0.00 0.07 0.07 61 1009.7
20260508184213 76 209 1.0 2.0 0.00 0.07 0.07 61 1009.9
20260508183709 76 198 1.0 7.0 0.00 0.07 0.07 62 1010.1
20260508183205 76 113 3.0 6.0 0.00 0.07 0.07 60 1010.2
20260508182701 76 84 2.0 4.0 0.00 0.07 0.07 63 1010.2
20260508182158 75 236 1.0 2.0 0.00 0.07 0.07 63 1010.0
20260508181654 75 200 2.0 3.0 0.00 0.07 0.07 63 1010.5
20260508181151 75 139 5.0 7.0 0.00 0.07 0.07 65 1010.4
20260508180648 75 193 3.0 4.0 0.00 0.07 0.07 62 1010.6
20260508180145 75 157 2.0 7.0 0.00 0.07 0.07 62 1010.8
20260508175641 74 140 4.0 9.0 0.00 0.07 0.07 62 1010.7
20260508175138 75 165 2.0 7.0 0.00 0.07 0.07 61 1010.9
20260508174636 74 179 1.0 3.0 0.00 0.07 0.07 62 1011.0
20260508174132 74 162 3.0 7.0 0.00 0.07 0.07 65 1011.0
20260508173629 73 153 1.0 6.0 0.00 0.07 0.07 65 1011.1
20260508173125 74 178 4.0 7.0 0.00 0.07 0.07 63 1011.2
20260508172623 73 151 3.0 4.0 0.00 0.07 0.07 66 1011.5
20260508172119 71 142 6.0 8.0 0.00 0.07 0.07 66 1011.4
20260508171616 72 158 5.0 7.0 0.00 0.07 0.07 65 1011.6
20260508171112 72 139 3.0 9.0 0.00 0.07 0.07 65 1012.0
20260508170610 72 195 3.0 9.0 0.00 0.07 0.07 65 1011.9
20260508170107 71 150 4.0 9.0 0.00 0.07 0.07 66 1012.3
20260508165603 71 172 6.0 9.0 0.00 0.07 0.07 66 1012.1
20260508165101 72 176 7.0 9.0 0.00 0.07 0.07 66 1012.2
20260508164557 71 172 4.0 8.0 0.00 0.07 0.07 67 1012.3
20260508164053 71 216 9.0 13.0 0.00 0.07 0.07 66 1012.4
20260508163551 71 183 8.0 14.0 0.00 0.07 0.07 65 1012.3
20260508163048 72 190 8.0 10.0 0.00 0.07 0.07 64 1012.6
20260508162545 71 171 7.0 10.0 0.00 0.07 0.07 66 1012.6
20260508162042 70 157 6.0 10.0 0.00 0.07 0.07 68 1012.4
20260508161538 70 180 6.0 8.0 0.00 0.07 0.07 68 1012.6
20260508161036 70 190 6.0 11.0 0.00 0.07 0.07 66 1012.9
20260508160534 71 154 9.0 10.0 0.00 0.07 0.07 68 1012.8
20260508160031 70 213 4.0 10.0 0.00 0.07 0.07 68 1012.7
20260508155528 71 157 8.0 11.0 0.00 0.07 0.07 68 1012.7
20260508155025 70 131 7.0 10.0 0.00 0.07 0.07 69 1012.6
20260508154522 69 161 4.0 8.0 0.00 0.07 0.07 70 1012.7
20260508154019 69 203 4.0 6.0 0.00 0.07 0.07 71 1012.9
20260508153516 69 169 6.0 7.0 0.00 0.07 0.07 72 1012.9
20260508153012 69 165 5.0 7.0 0.00 0.07 0.07 73 1012.8
20260508152509 70 182 4.0 7.0 0.00 0.07 0.07 73 1012.9
20260508152005 69 86 3.0 6.0 0.00 0.07 0.07 74 1012.9
20260508151502 69 133 3.0 4.0 0.00 0.07 0.07 74 1013.0
20260508150958 68 130 3.0 7.0 0.00 0.07 0.07 75 1012.8
20260508150455 67 169 0.0 2.0 0.00 0.07 0.07 78 1012.6
20260508145950 67 148 0.0 2.0 0.00 0.07 0.07 78 1012.9
20260508145448 66 156 1.0 2.0 0.00 0.07 0.07 79 1013.1
20260508144944 66 78 3.0 6.0 0.00 0.07 0.07 78 1013.0
20260508144442 66 140 4.0 4.0 0.00 0.07 0.07 79 1012.9
20260508143939 66 103 2.0 4.0 0.00 0.07 0.07 81 1013.0
20260508143437 65 164 0.0 3.0 0.00 0.07 0.07 83 1013.3
20260508142933 65 83 1.0 2.0 0.00 0.07 0.07 86 1013.3
20260508142430 63 165 1.0 2.0 0.00 0.07 0.07 87 1013.4
20260508141927 63 161 3.0 3.0 0.00 0.07 0.07 87 1013.3
20260508141423 63 137 2.0 4.0 0.00 0.07 0.07 88 1013.6
20260508140921 63 128 4.0 4.0 0.00 0.07 0.07 89 1013.5
20260508140418 62 122 3.0 4.0 0.00 0.07 0.07 91 1013.0
20260508135913 61 136 3.0 4.0 0.00 0.07 0.07 92 1013.5
20260508135410 61 166 2.0 3.0 0.00 0.07 0.07 93 1013.5
20260508134907 61 191 0.0 3.0 0.00 0.07 0.07 94 1013.4
20260508134403 60 187 1.0 3.0 0.00 0.07 0.07 94 1013.0
20260508133900 60 156 3.0 3.0 0.00 0.07 0.07 95 1013.1
20260508133358 60 151 0.0 1.0 0.00 0.07 0.07 95 1013.5
20260508132854 59 170 1.0 2.0 0.00 0.07 0.07 95 1013.6
20260508132353 59 156 0.0 0.0 0.00 0.07 0.07 95 1013.5
20260508131849 59 132 1.0 2.0 0.00 0.07 0.07 95 1013.5
20260508131344 59 101 0.0 3.0 0.00 0.07 0.07 95 1013.5
20260508130841 59 130 1.0 1.0 0.00 0.07 0.07 95 1013.5
20260508130338 59 113 0.0 0.0 0.00 0.07 0.07 95 1013.7
20260508125834 59 113 0.0 0.0 0.00 0.07 0.07 95 1013.9
20260508125330 59 112 0.0 0.0 0.00 0.07 0.07 95 1013.9
20260508124828 59 114 0.0 0.0 0.00 0.07 0.07 95 1013.8
20260508124325 59 113 0.0 0.0 0.00 0.07 0.07 95 1013.8
20260508123824 59 130 0.0 0.0 0.00 0.07 0.07 95 1013.9
20260508123322 59 106 0.0 0.0 0.00 0.07 0.07 95 1013.8
20260508122818 58 171 0.0 0.0 0.00 0.07 0.07 95 1013.9
20260508122315 58 174 0.0 0.0 0.00 0.07 0.07 95 1014.2
20260508121812 58 171 0.0 0.0 0.00 0.07 0.07 95 1013.9
20260508121311 58 155 0.0 0.0 0.00 0.07 0.07 95 1013.5
20260508120807 58 91 0.0 0.0 0.00 0.07 0.07 95 1013.5
20260508120305 58 175 0.0 0.0 0.00 0.07 0.07 94 1013.8
20260508115803 58 180 0.0 0.0 0.00 0.07 0.07 94 1013.6
20260508115300 58 180 0.0 0.0 0.00 0.07 0.07 94 1013.7
20260508114756 58 157 0.0 1.0 0.00 0.07 0.07 94 1013.6
20260508114253 58 162 0.0 0.0 0.00 0.07 0.07 94 1013.5
20260508113749 58 173 0.0 0.0 0.05 0.07 0.07 94 1013.9
20260508113248 58 177 0.0 0.0 0.05 0.07 0.07 94 1013.5
20260508112744 59 171 0.0 1.0 0.12 0.06 0.06 94 1013.9
20260508112241 59 163 0.0 1.0 0.24 0.06 0.06 94 1014.0
20260508111737 59 31 1.0 2.0 0.19 0.04 0.04 94 1014.1
20260508111235 59 16 3.0 3.0 0.00 0.01 0.01 93 1014.6
20260508110732 58 266 7.0 9.0 0.00 0.01 0.01 94 1015.4
20260508110230 58 297 2.0 3.0 0.00 0.01 0.01 93 1014.3
20260508105729 58 288 2.0 7.0 0.00 0.01 0.01 93 1014.3
20260508105227 58 270 4.0 6.0 0.00 0.01 0.01 93 1014.0
20260508104724 58 208 2.0 3.0 0.00 0.01 0.01 94 1013.3
20260508104221 58 183 2.0 3.0 0.00 0.01 0.01 94 1012.7
20260508103718 58 169 2.0 3.0 0.00 0.01 0.01 94 1012.6
20260508103215 58 163 1.0 3.0 0.00 0.01 0.01 94 1012.4
20260508102712 58 173 0.0 0.0 0.00 0.01 0.01 93 1012.4
20260508102210 58 165 0.0 0.0 0.00 0.01 0.01 93 1012.4
20260508101707 58 161 0.0 1.0 0.00 0.01 0.01 93 1012.3